Location: Newark
(44.6028°N, 124.0883°W)
Time: 05:26:01
(UTC+00:00)

Vanguard 2 Rocket - All Passes

Search period start: 16 October 2019 00:00
Search period end: 26 October 2019 00:00
Orbit: 554 x 3326 km, 32.9° (Epoch: 13 October)

Date Brightness Start Highest point End Pass type
(mag) Time Alt. Az. Time Alt. Az. Time Alt. Az.
16 Oct - 16:02:16 10° S 16:15:50 25° SE 16:29:57 10° E daylight
16 Oct - 18:13:12 10° SW 18:31:31 46° SSE 18:47:48 10° E daylight
16 Oct - 20:28:57 10° WSW 20:48:17 56° S 21:02:17 10° ESE daylight
16 Oct - 22:47:19 10° W 23:03:50 44° SSW 23:14:32 10° SE daylight
17 Oct - 01:08:14 10° W 01:16:37 18° SW 01:22:55 10° S daylight
17 Oct - 15:05:02 10° SSE 15:15:11 18° SE 15:26:06 10° E daylight
17 Oct - 17:13:01 10° SSW 17:29:59 40° SSE 17:46:42 10° E daylight
17 Oct - 19:27:16 10° WSW 19:46:40 55° S 20:02:17 10° ESE daylight
17 Oct - 21:44:44 10° W 22:03:06 51° SSW 22:15:32 10° SE daylight
18 Oct - 00:04:24 10° W 00:17:05 28° SW 00:25:49 10° SSE daylight
18 Oct - 14:14:07 10° SE 14:14:56 10° SE 14:15:45 10° ESE visible
18 Oct - 16:13:39 10° SSW 16:28:43 33° SE 16:44:54 10° E daylight
18 Oct - 18:26:09 10° SW 18:44:55 52° SSE 19:01:50 10° E daylight
18 Oct - 20:42:30 10° WSW 21:01:52 55° S 21:16:04 10° ESE daylight
18 Oct - 23:01:15 10° W 23:17:03 37° SSW 23:27:43 10° SSE daylight
19 Oct - 01:25:03 10° WSW 01:29:18 12° SW 01:33:02 10° SW daylight
19 Oct - 15:15:15 10° S 15:27:51 25° SE 15:42:09 10° E daylight
19 Oct - 17:25:40 10° SW 17:43:11 47° SSE 18:00:51 10° E daylight
19 Oct - 19:40:42 10° WSW 20:00:14 57° S 20:16:08 10° ESE daylight
19 Oct - 21:58:31 10° W 22:16:28 46° SSW 22:28:58 10° SE daylight
20 Oct - 00:19:13 10° W 00:29:54 21° SW 00:37:54 10° S daylight
20 Oct - 14:18:23 10° SSE 14:27:28 17° SE 14:37:48 10° E daylight
20 Oct - 16:25:53 10° SSW 16:41:43 41° SSE 16:59:17 10° E daylight
20 Oct - 18:39:26 10° WSW 18:58:23 56° S 19:15:43 10° ESE daylight
20 Oct - 20:56:12 10° W 21:15:20 52° SSW 21:29:40 10° SE daylight
20 Oct - 23:15:27 10° W 23:30:02 30° SW 23:40:27 10° SSE daylight
21 Oct - 15:26:52 10° SSW 15:40:39 33° SE 15:57:00 10° E daylight
21 Oct - 17:38:45 10° SW 17:56:31 53° SSE 18:14:48 10° E daylight
21 Oct - 19:54:20 10° WSW 20:13:46 57° S 20:29:50 10° ESE daylight
21 Oct - 22:12:28 10° W 22:29:38 39° SSW 22:42:05 10° SSE daylight
22 Oct - 00:35:24 10° WSW 00:42:32 14° SW 00:48:30 10° SSW daylight
22 Oct - 14:28:48 10° S 14:40:04 24° SE 14:53:48 10° E daylight
22 Oct - 16:38:41 10° SW 16:54:52 48° SSE 17:13:21 10° E daylight
22 Oct - 18:52:58 10° WSW 19:11:54 58° S 19:29:30 10° ESE daylight
22 Oct - 21:10:01 10° W 21:28:39 47° SSW 21:43:01 10° SE daylight
22 Oct - 23:30:13 10° W 23:42:48 23° SW 23:52:28 10° S daylight
23 Oct - 13:32:21 10° SSE 13:39:59 16° SE 13:48:58 10° E visible
23 Oct - 15:39:17 10° SSW 15:53:35 40° SSE 16:11:19 10° E daylight
23 Oct - 17:52:08 10° WSW 18:09:58 57° S 18:28:38 10° E daylight
23 Oct - 20:08:04 10° W 20:27:12 53° SSW 20:43:22 10° SE daylight
23 Oct - 22:26:41 10° W 22:42:34 32° SW 22:54:41 10° SSE daylight
24 Oct - 14:40:36 10° SSW 14:52:48 32° SE 15:08:37 10° E daylight
24 Oct - 16:51:53 10° SW 17:08:09 53° SSE 17:27:14 10° E daylight
24 Oct - 19:06:39 10° WSW 19:25:25 57° S 19:43:08 10° ESE daylight
24 Oct - 21:24:00 10° W 21:41:48 41° SSW 21:56:00 10° SSE daylight
24 Oct - 23:46:10 10° W 23:55:23 16° SW 00:03:08 10° SSW daylight
25 Oct - 13:42:52 10° S 13:52:33 23° SE 14:05:03 10° E visible
25 Oct - 15:52:13 10° SW 16:06:42 47° SSE 16:25:19 10° E daylight
25 Oct - 18:05:45 10° WSW 18:23:28 58° S 18:42:20 10° ESE daylight
25 Oct - 20:21:57 10° W 20:40:31 48° SSW 20:56:36 10° SE daylight
25 Oct - 22:41:27 10° W 22:55:19 25° SW 23:06:34 10° S daylight
